When you browse on this site, cookies collect data to enhance your experience and personalize the content and advertising you see.
Visit our Privacy Policy to learn more. By continuing to use the site, you agree to this use of cookies and data.

Hourly Weather Nakhchivan

Today, 12 July, Sunday

Time Temperature Precipitation Wind Pressure Humidity
00:00 +26°C° 0.1 mm 2 mps 687 mmHg 53%
01:00 +25°C° 0 mm 2 mps 686 mmHg 55%
02:00 +25°C° 0 mm 2 mps 686 mmHg 57%
03:00 +24°C° 0 mm 2 mps 685 mmHg 59%
04:00 +24°C° 0 mm 2 mps 685 mmHg 59%
05:00 +24°C° 0 mm 1 mps 685 mmHg 59%
06:00 +24°C° 0 mm 1 mps 685 mmHg 59%
07:00 +25°C° 0 mm 1 mps 685 mmHg 55%
08:00 +26°C° 0 mm 2 mps 685 mmHg 51%
09:00 +27°C° 0 mm 2 mps 685 mmHg 47%
10:00 +28°C° 0 mm 2 mps 685 mmHg 43%
11:00 +30°C° 0 mm 2 mps 685 mmHg 39%
12:00 +31°C° 0 mm 2 mps 685 mmHg 35%
13:00 +33°C° 0 mm 3 mps 685 mmHg 33%
14:00 +34°C° 0 mm 4 mps 685 mmHg 31%
15:00 +35°C° 0 mm 4 mps 684 mmHg 29%
16:00 +34°C° 0 mm 5 mps 684 mmHg 30%
17:00 +34°C° 0 mm 5 mps 684 mmHg 31%
18:00 +33°C° 0 mm 5 mps 683 mmHg 32%
19:00 +32°C° 0.1 mm 4 mps 684 mmHg 35%
20:00 +30°C° 0.1 mm 4 mps 684 mmHg 38%
21:00 +29°C° 0.1 mm 3 mps 684 mmHg 41%
22:00 +28°C° 0.3 mm 3 mps 683 mmHg 43%
23:00 +27°C° 0.3 mm 3 mps 683 mmHg 45%

Tomorrow, 13 July, Monday

Time Temperature Precipitation Wind Pressure Humidity
00:00 +27°C° 0.3 mm 2 mps 683 mmHg 47%
01:00 +26°C° 0.3 mm 2 mps 683 mmHg 48%
02:00 +26°C° 0.3 mm 1 mps 682 mmHg 49%
03:00 +25°C° 0.3 mm 1 mps 682 mmHg 51%
04:00 +25°C° 0 mm 1 mps 682 mmHg 52%
05:00 +25°C° 0 mm 1 mps 682 mmHg 53%
06:00 +25°C° 0 mm 1 mps 682 mmHg 55%
07:00 +26°C° 0 mm 1 mps 682 mmHg 51%
08:00 +27°C° 0 mm 1 mps 682 mmHg 48%
09:00 +28°C° 0 mm 1 mps 682 mmHg 44%
10:00 +29°C° 0.1 mm 1 mps 682 mmHg 41%
11:00 +30°C° 0.1 mm 1 mps 682 mmHg 37%
12:00 +31°C° 0.1 mm 1 mps 681 mmHg 34%
13:00 +32°C° 0 mm 1 mps 682 mmHg 32%
14:00 +33°C° 0 mm 1 mps 682 mmHg 29%
15:00 +34°C° 0 mm 1 mps 682 mmHg 27%
16:00 +32°C° 0.5 mm 2 mps 682 mmHg 33%
17:00 +30°C° 0.5 mm 3 mps 682 mmHg 39%
18:00 +28°C° 0.5 mm 4 mps 682 mmHg 45%
19:00 +27°C° 0.4 mm 3 mps 682 mmHg 50%
20:00 +26°C° 0.4 mm 2 mps 682 mmHg 56%
21:00 +25°C° 0.4 mm 2 mps 683 mmHg 62%
22:00 +25°C° 0 mm 2 mps 683 mmHg 61%
23:00 +25°C° 0 mm 2 mps 683 mmHg 59%

Day after tomorrow, 14 July, Tuesday

Time Temperature Precipitation Wind Pressure Humidity
00:00 +25°C° 0 mm 2 mps 683 mmHg 58%
01:00 +25°C° 0 mm 1 mps 683 mmHg 59%
02:00 +24°C° 0 mm 1 mps 683 mmHg 61%
03:00 +24°C° 0 mm 1 mps 683 mmHg 63%
04:00 +24°C° 0 mm 1 mps 683 mmHg 63%
05:00 +24°C° 0 mm 1 mps 683 mmHg 63%
06:00 +24°C° 0 mm 2 mps 683 mmHg 63%
07:00 +25°C° 0 mm 2 mps 683 mmHg 59%
08:00 +26°C° 0 mm 2 mps 684 mmHg 55%
09:00 +27°C° 0 mm 2 mps 684 mmHg 51%
10:00 +28°C° 0 mm 2 mps 684 mmHg 47%
11:00 +29°C° 0 mm 1 mps 684 mmHg 42%
12:00 +31°C° 0 mm 1 mps 684 mmHg 38%
13:00 +32°C° 0 mm 1 mps 684 mmHg 35%
14:00 +33°C° 0 mm 1 mps 684 mmHg 32%
15:00 +34°C° 0 mm 2 mps 684 mmHg 29%
16:00 +34°C° 0.1 mm 2 mps 684 mmHg 30%
17:00 +34°C° 0.1 mm 2 mps 684 mmHg 30%
18:00 +34°C° 0.1 mm 2 mps 685 mmHg 31%
19:00 +32°C° 0 mm 2 mps 685 mmHg 34%
20:00 +31°C° 0 mm 1 mps 686 mmHg 37%
21:00 +30°C° 0 mm 1 mps 686 mmHg 39%
22:00 +30°C° 0.1 mm 1 mps 686 mmHg 42%
23:00 +29°C° 0.1 mm 1 mps 686 mmHg 44%

15 July, Wednesday

Time Temperature Precipitation Wind Pressure Humidity
00:00 +29°C° 0.1 mm 1 mps 686 mmHg 47%
01:00 +28°C° 0.1 mm 1 mps 686 mmHg 49%
02:00 +27°C° 0.1 mm 1 mps 686 mmHg 52%
03:00 +26°C° 0.1 mm 1 mps 686 mmHg 55%
04:00 +26°C° 0 mm 1 mps 686 mmHg 54%
05:00 +26°C° 0 mm 2 mps 686 mmHg 54%
06:00 +26°C° 0 mm 2 mps 686 mmHg 53%
07:00 +27°C° 0 mm 2 mps 686 mmHg 50%
08:00 +28°C° 0 mm 2 mps 687 mmHg 47%
09:00 +29°C° 0 mm 2 mps 687 mmHg 43%
10:00 +30°C° 0 mm 2 mps 687 mmHg 40%
11:00 +31°C° 0 mm 1 mps 687 mmHg 37%
12:00 +32°C° 0 mm 1 mps 687 mmHg 34%
13:00 +34°C° 0 mm 1 mps 686 mmHg 30%
14:00 +35°C° 0 mm 1 mps 686 mmHg 27%
15:00 +36°C° 0 mm 1 mps 686 mmHg 23%
16:00 +37°C° 0 mm 2 mps 686 mmHg 23%
17:00 +37°C° 0 mm 3 mps 686 mmHg 23%
18:00 +37°C° 0 mm 3 mps 686 mmHg 23%
19:00 +35°C° 0.1 mm 3 mps 686 mmHg 28%
20:00 +34°C° 0.1 mm 3 mps 686 mmHg 33%
21:00 +31°C° 0.1 mm 3 mps 686 mmHg 38%
22:00 +30°C° 0.4 mm 3 mps 686 mmHg 42%
23:00 +29°C° 0.4 mm 3 mps 685 mmHg 46%

16 July, Thursday

Time Temperature Precipitation Wind Pressure Humidity
00:00 +27°C° 0.4 mm 3 mps 685 mmHg 50%
01:00 +27°C° 0.7 mm 2 mps 685 mmHg 54%
02:00 +26°C° 0.7 mm 2 mps 685 mmHg 58%
03:00 +25°C° 0.7 mm 1 mps 684 mmHg 62%
04:00 +24°C° 0.6 mm 1 mps 684 mmHg 64%
05:00 +24°C° 0.6 mm 1 mps 684 mmHg 66%
06:00 +24°C° 0.6 mm 1 mps 684 mmHg 68%
07:00 +25°C° 0.3 mm 1 mps 684 mmHg 64%
08:00 +26°C° 0.3 mm 1 mps 685 mmHg 60%
09:00 +27°C° 0.3 mm 2 mps 685 mmHg 56%
10:00 +28°C° 0 mm 2 mps 685 mmHg 52%
11:00 +29°C° 0 mm 2 mps 684 mmHg 47%
12:00 +30°C° 0 mm 2 mps 684 mmHg 43%
13:00 +31°C° 0 mm 2 mps 684 mmHg 41%
14:00 +32°C° 0 mm 2 mps 684 mmHg 38%
15:00 +34°C° 0 mm 3 mps 684 mmHg 35%
16:00 +33°C° 0.1 mm 3 mps 684 mmHg 37%
17:00 +33°C° 0.1 mm 3 mps 684 mmHg 38%
18:00 +32°C° 0.1 mm 4 mps 683 mmHg 40%
19:00 +30°C° 0.2 mm 4 mps 684 mmHg 46%
20:00 +28°C° 0.2 mm 4 mps 684 mmHg 52%
21:00 +27°C° 0.2 mm 5 mps 684 mmHg 58%
22:00 +26°C° 0.3 mm 4 mps 684 mmHg 59%
23:00 +25°C° 0.3 mm 3 mps 684 mmHg 61%

17 July, Friday

Time Temperature Precipitation Wind Pressure Humidity
00:00 +25°C° 0.3 mm 2 mps 683 mmHg 62%
01:00 +24°C° 0.3 mm 2 mps 683 mmHg 64%
02:00 +24°C° 0.3 mm 1 mps 683 mmHg 65%
03:00 +24°C° 0.3 mm 1 mps 683 mmHg 67%
04:00 +24°C° 0.1 mm 1 mps 683 mmHg 66%
05:00 +24°C° 0.1 mm 1 mps 684 mmHg 66%
06:00 +24°C° 0.1 mm 1 mps 684 mmHg 65%
07:00 +25°C° 0 mm 1 mps 684 mmHg 60%
08:00 +26°C° 0 mm 1 mps 684 mmHg 55%
09:00 +27°C° 0 mm 1 mps 684 mmHg 50%
10:00 +29°C° 0 mm 2 mps 684 mmHg 45%
11:00 +30°C° 0 mm 2 mps 684 mmHg 41%
12:00 +31°C° 0 mm 2 mps 684 mmHg 37%
13:00 +34°C° 0 mm 3 mps 684 mmHg 35%
14:00 +35°C° 0 mm 3 mps 684 mmHg 33%
15:00 +36°C° 0 mm 4 mps 684 mmHg 31%
16:00 +36°C° 0 mm 4 mps 684 mmHg 32%
17:00 +35°C° 0 mm 4 mps 684 mmHg 32%
18:00 +35°C° 0 mm 4 mps 684 mmHg 33%
19:00 +33°C° 0.1 mm 3 mps 684 mmHg 37%
20:00 +31°C° 0.1 mm 3 mps 684 mmHg 42%
21:00 +29°C° 0.1 mm 3 mps 685 mmHg 46%
22:00 +29°C° 0.1 mm 2 mps 685 mmHg 48%
23:00 +28°C° 0.1 mm 2 mps 685 mmHg 50%
Show more